www.pogodaiklimat.ru

Погода и климат >> Архив погоды >> Россия >> Томская область >> Тегульдет


ПОГОДА в Тегульдете

  • Прогноз погоды в Тегульдете
  • Монитор погоды в Тегульдете

АРХИВ ПОГОДЫ в Тегульдете

Время (UTC), дата Ветер
(напр.,м/с)
 
Видим.   Явления Облачность Т
(С)
Тd
(С)
f
(%)
Тe
(С)
Тes
(С)
Комфортность P
(гПа)
Po
(гПа)
Тmin
(С)
Tmax
(С)
R
(мм)
R24
(мм)
S
(см)
09 9.07 ЮЗ 2 10 км 9 баллов +27.0 +9.8 34 +27 +28 жарко 1004.2 989.3
12 9.07 Ю 2 10 км 8/5 600 м
[Cu Sc Ci fib]
+25.8 +10.7 39 +27 +28 жарко 1003.2 988.0 +27.0
15 9.07 штиль 0 10 км 10 баллов +18.4 +15.5 83 +19 +19 1003.3 988.0
18 9.07 штиль 0 10 км 10 баллов +14.5 +13.0 91 +14 +14 1002.2 986.7
21 9.07 З 3 10 км 10 баллов +16.2 +12.9 81 +16 +16 1002.1 986.7
00 10.07 В 2 10 км 8/0
[Ac As]
+17.2 +13.5 79 +18 +18 1001.9 986.3 +13.2
03 10.07 З 1 10 км 9 баллов +19.0 +14.5 75 +21 +22 комфорт 1001.9 986.7
06 10.07 З 3 10 км {ливн. осадки} 10/10 600 м
[Sc]
+18.8 +14.1 74 +20 +20 1004.6 989.3
09 10.07 З 3 10 км 9 баллов +20.6 +13.8 65 +23 +24 комфорт 1005.9 990.7
12 10.07 ЮЗ 1 10 км гроза, ливневой дождь 10/10 300 м
[Cb cap]
+17.3 +14.3 83 +18 +18 1007.0 991.3 +21.9 2
15 10.07 З 1 10 км 2 балла +15.6 +13.6 88 +16 +16 1010.3 994.7
18 10.07 З 2 10 км ясно +13.6 +12.2 91 +13 +13 1011.7 996.0
21 10.07 З 1 10 км ясно +11.8 +10.7 93 +12 +12 1014.5 998.7
00 11.07 З 2 10 км ясно +13.1 +11.4 89 +12 +14 1016.2 1000.2 +11.0
03 11.07 СЗ 2 10 км 7 баллов +16.0 +11.6 75 +16 +19 1018.4 1002.7
06 11.07 СЗ 2 10 км 8/8 600 м
[Sc]
+20.0 +9.0 49 +22 +26 комфорт 1018.2 1002.7
09 11.07 З 2 10 км 6 баллов +21.9 +8.0 41 +23 +27 комфорт 1018.1 1002.7
12 11.07 СЗ 1 10 км 3/3 600 м
[Cu hum]
+21.5 +8.7 44 +23 +25 комфорт 1018.2 1002.4 +22.3
15 11.07 штиль 0 10 км ясно +13.9 +11.8 87 +13 +13 1019.8 1004.0
18 11.07 штиль 0 10 км ясно +9.1 +8.0 93 +8 +8 1020.1 1004.0
21 11.07 штиль 0 10 км ясно +6.3 +5.4 94 +5 +5 1021.6 1005.3
00 12.07 штиль 0 10 км ясно +10.4 +9.5 94 +10 +12 1021.0 1004.7 +6.0
03 12.07 Ю 1 10 км ясно +20.2 +14.1 68 +24 +35 комфорт 1020.8 1005.3
06 12.07 В 1 10 км ясно +23.1 +7.6 37 +24 +41 комфорт 1019.3 1004.0
09 12.07 СВ 1 10 км ясно +24.4 +7.5 34 +25 +37 комфорт 1019.3 1004.0
12 12.07 СВ 1 10 км ясно +23.9 +9.5 40 +25 +28 комфорт 1018.2 1002.6 +24.9
15 12.07 штиль 0 10 км ясно +15.5 +12.4 82 +15 +15 1018.4 1002.7
18 12.07 штиль 0 10 км ясно +10.1 +9.0 93 +9 +9 1020.0 1004.0
21 12.07 штиль 0 10 км ясно +7.9 +6.8 93 +7 +7 1018.8 1002.7
00 13.07 штиль 0 10 км ясно +11.7 +10.7 94 +11 +14 1018.0 1001.8 +7.5
03 13.07 С 1 10 км 7 баллов +23.4 +12.4 50 +26 +30 жарко 1018.0 1002.7
06 13.07 СВ 1 10 км 4 балла +27.1 +10.3 35 +28 +38 жарко 1016.4 1001.3
12 13.07 СВ 1 10 км 8/0
[Ci ing]
+24.8 +13.4 49 +27 +29 жарко 1013.5 998.0 +28.3
18 13.07 штиль 0 10 км ясно +13.9 +12.8 93 +13 +13 1013.0 997.3
21 13.07 штиль 0 10 км ясно +14.5 +13.4 93 +14 +14 1013.0 997.3
00 14.07 С 2 10 км ясно +18.2 +14.4 78 +19 +21 1013.3 997.5 +12.4
03 14.07 СВ 2 10 км 2 балла +21.5 +12.9 58 +24 +31 комфорт 1014.0 998.7
06 14.07 С 2 10 км ясно +24.8 +11.4 43 +26 +41 жарко 1012.4 997.3
09 14.07 СЗ 2 10 км 7 баллов +26.1 +11.4 40 +27 +30 жарко 1012.4 997.3
12 14.07 СЗ 2 10 км 6/6 1000 м
[Cu hum]
+25.1 +10.3 39 +26 +27 жарко 1010.6 995.5 +27.0
15 14.07 З 1 10 км ясно +17.0 +12.5 75 +18 +18 1011.5 996.0
18 14.07 С 1 10 км ясно +14.6 +10.6 77 +15 +15 1011.6 996.0
21 14.07 З 1 10 км ясно +11.3 +9.2 87 +11 +11 1011.8 996.0
00 15.07 С 1 10 км 3/0
[Ac As]
+14.5 +9.4 71 +15 +17 1011.0 995.1 +9.8
03 15.07 СЗ 1 10 км 10 баллов +16.3 +10.2 67 +17 +17 1011.6 996.0
06 15.07 С 2 10 км 9 баллов +20.0 +12.0 60 +22 +24 комфорт 1010.0 994.7
09 15.07 СВ 1 10 км 7 баллов +22.7 +13.2 55 +26 +29 жарко 1009.9 994.7
12 15.07 СЗ 1 10 км 10/10 600 м
[Sc]
+21.2 +13.8 63 +24 +24 комфорт 1009.6 994.1 +23.8
15 15.07 штиль 0 10 км 10 баллов +15.5 +13.3 87 +15 +15 1010.3 994.7
18 15.07 штиль 0 10 км 10 баллов +15.3 +14.0 92 +15 +15 1010.3 994.7
21 15.07 штиль 0 10 км 10 баллов +15.5 +14.4 93 +15 +15 1008.8 993.3
00 16.07 штиль 0 10 км 10/10 600 м
[St]
+15.6 +14.5 93 +15 +15 1006.5 990.8 +15.0 1
03 16.07 С 1 10 км 10 баллов +16.9 +14.7 87 +18 +18 1006.1 990.7

 

Местоположение метеостанции Тегульдет (Томская область, Россия): широта 57.30 долгота 88.15 высота над уровнем моря 132 м.

В архиве по умолчанию представлена погода в Тегульдете за последнюю неделю. Архивные данные за месяц целиком и за предыдущие месяцы, начиная с января 2011 года, Вы можете получить, выбрав интересующий диапазон дат из раскрывающегося списка и нажав кнопку "Ввод!".


*Определитесь, кто Вы:
робот инопланетянин человек

Внимание! Время в таблицах - всемирное. Для получения местного времени необходимо прибавить поправку, которая равна 7 ч.

Смотрите также архив погоды в соседних городах и на ближайших метеорологических станциях:

Погода в Тюхтете (Красноярский край, Россия) (111 км)
Погода в Первомайском (Томская область, Россия) (119 км)
Погода в Мариинске (Кемеровская область, Россия) (128 км)
Погода в Тяжине (Кемеровская область, Россия) (133 км)
Погода в Лосиноборске (Красноярский край, Россия) (145 км)
Погода в Новобирилюссах (Красноярский край, Россия) (145 км)
Погода в Боготоле (Красноярский край, Россия) (148 км)
Погода в Яе (Кемеровская область, Россия) (160 км)
Погода в Большом Улуе (Красноярский край, Россия) (162 км)
Погода в Степановке (Томская область, Россия) (170 км)

Пояснения к столбцам:

Ветер - указаны скорость ветра в м/с - средняя за 10 мин, порывы в срок и между сроками (в фигурных скобках) и направление, откуда дует ветер: С - северный, СВ - северо-восточный, В - восточный, ЮВ - юго-восточный, Ю - южный, ЮЗ - юго-западный, З - западный, СЗ - северо-западный.
Видимость - горизонтальная дальность видимости в метрах или километрах. При видимости от 1 до 10 км при отсутствии осадков обычно наблюдается дымка, при ухудшении видимости до 1 км и менее - туман. В сухую погоду видимость может ухудшаться дымом, пылью или мглою.
Явления - указаны атмосферные явления, наблюдавшиеся в срок или в последний час перед сроком; фигурными скобками обозначены явления, наблюдавшиеся между сроками (за 1-3 часа до срока); квадратными скобками обозначены град или гололедные отложения с указанием их диаметра в мм.
Облачность - указаны через наклонную черту общая и нижняя облачность в баллах и высота нижней границы облаков в метрах; квадратными скобками обозначены формы облаков: Ci - перистые, Cs - перисто-слоистые, Cc - перисто-кучевые, Ac - высококучевые, As - высокослоистые, Sc - слоисто-кучевые, Ns - слоисто-дождевые, Cu - кучевые, Cb - кучево-дождевые. Подробнее классификацию облаков см. в Атласе облаков (PDF).
T - Температура воздуха - температура, измеренная на высоте 2 м над землей.
Td - Температура точки росы - температура, при понижении до которой содержащийся в воздухе водяной пар достигнет насыщения.
f - Относительная влажность воздуха - влажноcть воздуха, измеренная на высоте 2 м над землей.
Te - Эффективная температура - температура, которую ощущает одетый по сезону человек в тени. Характеристика душности погоды. При расчете учитывается влияние влажности воздуха и скорости ветра на теплоощущения человека.
Tes - Эффективная температура на солнце - температура, которую ощущает человек, с поправкой на солнечный нагрев. Характеристика знойности погоды. Зависит от высоты солнца над горизонтом, облачности и скорости ветра. Ночью, в пасмурную погоду, а также при ветре 12 м/с и более поправка равна нулю.
P - Атмосферное давление - приведенное к уровню моря атмосферное давление.
Po - Атмосферное давление - измеренное на уровне метеостанции атмосферное давление.
Tmin - Минимальная температура - минимум температуры воздуха на высоте 2 м над землей.
Tmax - Максимальная температура - максимум температуры воздуха на высоте 2 м над землей.
R - Количество осадков - Количество выпавших осадков за период времени, мм. При наведении курсора мыши на число - период времени, за который выпало указанное количество осадков.
R24 - Количество осадков - Количество выпавших осадков за 24 часа, мм.
S - Снежный покров - Высота снежного покрова, см. При наведении курсора мыши на число - состояние снежного покрова и степень покрытия местности в баллах.